Time,TemperatureF,DewpointF,PressureIn,WindDirection,WindDirectionDegrees,WindSpeedMPH,WindSpeedGustMPH,Humidity,HourlyPrecipIn,Conditions,Clouds,dailyrainin,SoftwareType,DateUTC
2013-03-05 00:00:00,18.4,8.2,30.33,ESE,108,3.0,6.0,64,0.00,RA,,0.00,WeatherDisplay:10.37,2013-03-05 07:00:00,
2013-03-05 00:30:00,18.2,7.3,30.35,ESE,104,3.0,7.0,62,0.00,CLR,,0.00,WeatherDisplay:10.37,2013-03-05 07:30:00,
2013-03-05 01:00:00,18.0,6.8,30.36,East,96,3.0,9.0,61,0.00,CLR,,0.00,WeatherDisplay:10.37,2013-03-05 08:00:00,
2013-03-05 01:30:00,16.5,6.4,30.38,ESE,103,2.0,6.0,64,0.00,CLR,,0.00,WeatherDisplay:10.37,2013-03-05 08:30:00,
2013-03-05 02:00:00,16.6,5.9,30.38,ESE,104,5.0,10.0,62,0.00,CLR,,0.00,WeatherDisplay:10.37,2013-03-05 09:00:00,
2013-03-05 02:30:00,16.6,4.7,30.39,East,98,3.0,9.0,59,0.00,CLR,,0.00,WeatherDisplay:10.37,2013-03-05 09:30:00,
2013-03-05 03:00:00,16.2,4.4,30.39,East,100,3.0,12.0,59,0.00,CLR,,0.00,WeatherDisplay:10.37,2013-03-05 10:00:00,
2013-03-05 03:30:00,15.1,4.1,30.41,SE,133,0.0,8.0,61,0.00,CLR,,0.00,WeatherDisplay:10.37,2013-03-05 10:30:00,
2013-03-05 04:00:00,14.3,4.0,30.42,ESE,121,1.0,7.0,63,0.00,CLR,,0.00,WeatherDisplay:10.37,2013-03-05 11:00:00,
2013-03-05 04:30:00,13.9,3.3,30.43,East,101,3.0,9.0,62,0.00,CLR,,0.00,WeatherDisplay:10.37,2013-03-05 11:30:00,
2013-03-05 05:00:00,14.7,2.9,30.45,ESE,112,2.0,7.0,59,0.00,CLR,,0.00,WeatherDisplay:10.37,2013-03-05 12:00:00,
2013-03-05 05:30:00,13.1,2.9,30.46,East,99,1.0,6.0,63,0.00,CLR,,0.00,WeatherDisplay:10.37,2013-03-05 12:30:00,
2013-03-05 06:00:00,12.5,2.6,30.47,SE,132,2.0,3.0,64,0.00,CLR,,0.00,WeatherDisplay:10.37,2013-03-05 13:00:00,
2013-03-05 06:30:00,12.4,2.2,30.48,SE,127,3.0,6.0,63,0.00,CLR,,0.00,WeatherDisplay:10.37,2013-03-05 13:30:00,
2013-03-05 07:00:00,12.9,3.0,30.48,ESE,117,0.0,5.0,64,0.00,CLR,,0.00,WeatherDisplay:10.37,2013-03-05 14:00:00,
2013-03-05 07:30:00,14.4,4.4,30.50,SSW,207,0.0,4.0,64,0.00,CLR,,0.00,WeatherDisplay:10.37,2013-03-05 14:30:00,
2013-03-05 08:00:00,17.5,6.0,30.51,SW,214,0.0,1.0,60,0.00,CLR,,0.00,WeatherDisplay:10.37,2013-03-05 15:00:00,
2013-03-05 08:30:00,21.3,7.6,30.51,ESE,115,0.0,4.0,55,0.00,CLR,,0.00,WeatherDisplay:10.37,2013-03-05 15:30:00,
2013-03-05 09:00:00,22.9,7.9,30.51,ESE,112,1.0,5.0,52,0.00,CLR,,0.00,WeatherDisplay:10.37,2013-03-05 16:00:00,
2013-03-05 09:30:00,25.6,8.6,30.51,WSW,250,0.0,3.0,48,0.00,CLR,,0.00,WeatherDisplay:10.37,2013-03-05 16:30:00,
2013-03-05 10:00:00,28.2,9.1,30.50,West,274,0.0,5.0,44,0.00,CLR,,0.00,WeatherDisplay:10.37,2013-03-05 17:00:00,
2013-03-05 10:30:00,29.5,9.2,30.50,WSW,239,5.0,6.0,42,0.00,CLR,,0.00,WeatherDisplay:10.37,2013-03-05 17:30:00,
2013-03-05 11:00:00,32.8,12.7,30.48,WSW,254,0.0,6.0,43,0.00,CLR,,0.00,WeatherDisplay:10.37,2013-03-05 18:00:00,
2013-03-05 11:30:00,34.4,8.9,30.48,NW,326,1.0,4.0,34,0.00,CLR,,0.00,WeatherDisplay:10.37,2013-03-05 18:30:00,
2013-03-05 12:00:00,35.9,12.7,30.47,WSW,249,1.0,7.0,38,0.00,CLR,,0.00,WeatherDisplay:10.37,2013-03-05 19:00:00,
2013-03-05 12:30:00,36.8,12.3,30.46,WNW,285,1.0,5.0,36,0.00,CLR,,0.00,WeatherDisplay:10.37,2013-03-05 19:30:00,
2013-03-05 13:00:00,38.8,12.1,30.44,WSW,251,3.0,5.0,33,0.00,CLR,,0.00,WeatherDisplay:10.37,2013-03-05 20:00:00,
2013-03-05 13:30:00,40.2,14.0,30.42,WSW,246,0.0,6.0,34,0.00,CLR,,0.00,WeatherDisplay:10.37,2013-03-05 20:30:00,
2013-03-05 14:00:00,39.9,16.3,30.40,East,101,2.0,4.0,38,0.00,CLR,,0.00,WeatherDisplay:10.37,2013-03-05 21:00:00,
2013-03-05 14:30:00,42.3,17.2,30.39,South,177,0.0,4.0,36,0.00,CLR,,0.00,WeatherDisplay:10.37,2013-03-05 21:30:00,
2013-03-05 15:00:00,43.6,18.4,30.38,SSW,206,1.0,6.0,36,0.00,CLR,,0.00,WeatherDisplay:10.37,2013-03-05 22:00:00,
2013-03-05 15:30:00,45.3,19.3,30.36,WSW,244,1.0,6.0,35,0.00,CLR,,0.00,WeatherDisplay:10.37,2013-03-05 22:30:00,
2013-03-05 16:00:00,46.6,19.0,30.34,WNW,288,1.0,4.0,33,0.00,CLR,,0.00,WeatherDisplay:10.37,2013-03-05 23:00:00,
2013-03-05 16:30:00,46.2,18.7,30.33,WSW,239,2.0,5.0,33,0.00,CLR,,0.00,WeatherDisplay:10.37,2013-03-05 23:30:00,
2013-03-05 17:00:00,45.9,17.7,30.33,West,266,0.0,4.0,32,0.00,CLR,,0.00,WeatherDisplay:10.37,2013-03-06 00:00:00,
2013-03-05 17:30:00,44.4,19.0,30.32,WSW,251,0.0,0.0,36,0.00,CLR,,0.00,WeatherDisplay:10.37,2013-03-06 00:30:00,
2013-03-05 18:00:00,38.2,20.3,30.31,ESE,122,1.0,5.0,48,0.00,CLR,,0.00,WeatherDisplay:10.37,2013-03-06 01:00:00,
2013-03-05 18:30:00,34.4,19.0,30.31,ESE,117,1.0,6.0,53,0.00,CLR,,0.00,WeatherDisplay:10.37,2013-03-06 01:30:00,
2013-03-05 19:00:00,32.4,19.2,30.31,SE,146,0.0,6.0,58,0.00,CLR,,0.00,WeatherDisplay:10.37,2013-03-06 02:00:00,
2013-03-05 19:30:00,32.5,18.1,30.31,SE,130,0.0,5.0,55,0.00,CLR,,0.00,WeatherDisplay:10.37,2013-03-06 02:30:00,
2013-03-05 20:00:00,29.9,18.5,30.31,ESE,105,1.0,4.0,62,0.00,CLR,,0.00,WeatherDisplay:10.37,2013-03-06 03:00:00,
2013-03-05 20:30:00,28.1,16.7,30.32,ESE,118,0.0,5.0,62,0.00,CLR,,0.00,WeatherDisplay:10.37,2013-03-06 03:30:00,
2013-03-05 21:00:00,27.5,16.9,30.33,East,101,0.0,5.0,64,0.00,CLR,,0.00,WeatherDisplay:10.37,2013-03-06 04:00:00,
2013-03-05 21:30:00,26.7,16.1,30.33,ESE,104,1.0,6.0,64,0.00,CLR,,0.00,WeatherDisplay:10.37,2013-03-06 04:30:00,
2013-03-05 22:00:00,27.5,16.2,30.33,ESE,115,2.0,6.0,62,0.00,CLR,,0.00,WeatherDisplay:10.37,2013-03-06 05:00:00,
2013-03-05 22:30:00,25.4,15.6,30.32,East,93,2.0,4.0,66,0.00,CLR,,0.00,WeatherDisplay:10.37,2013-03-06 05:30:00,
2013-03-05 23:00:00,25.8,14.9,30.32,ESE,110,3.0,7.0,63,0.00,CLR,,0.00,WeatherDisplay:10.37,2013-03-06 06:00:00,
2013-03-05 23:30:00,27.1,14.3,30.31,ESE,111,2.0,7.0,58,0.00,CLR,,0.00,WeatherDisplay:10.37,2013-03-06 06:30:00,